EW9936 Weather Reports


time (UTC)temp
F
wind
direction
speed
knots
gust
knots
rain 1hr
in
rain 24hr
in
rain mn
in
humidity
%
barometer
mb
20260506221533 65 220 0.0 0.0 0.00 0.00 0.00 97 970.8
20260506220032 64 220 0.0 0.0 0.00 0.00 0.00 97 970.8
20260506214530 64 220 0.9 0.0 0.00 0.00 0.00 97 970.7
20260506213028 64 218 3.5 0.0 0.00 0.00 0.00 96 970.6
20260506211529 64 223 5.2 0.0 0.00 0.00 0.00 96 970.3
20260506204535 64 213 0.9 0.0 0.00 0.00 0.19 98 970.3
20260506203030 63 212 1.7 0.0 0.00 0.00 0.19 98 970.3
20260506201533 63 214 3.5 0.0 0.00 0.00 0.19 98 970.1
20260506200038 63 215 6.1 0.0 0.00 0.00 0.19 99 970.2
20260506194526 62 218 4.3 0.0 0.00 0.00 0.19 99 970.4
20260506193028 62 198 6.1 0.0 0.00 0.00 0.19 100 970.6
20260506191525 61 217 4.3 0.0 0.00 0.00 0.19 100 970.6
20260506190023 61 215 3.5 0.0 0.00 0.00 0.19 100 970.8
20260506184521 60 200 4.3 0.0 0.00 0.00 0.19 100 970.8
20260506183021 60 222 5.2 0.0 0.00 0.00 0.19 100 971.0
20260506181520 60 221 4.3 0.0 0.00 0.00 0.19 100 971.4
20260506180019 60 220 5.2 0.0 0.00 0.00 0.19 100 971.4
20260506174517 60 227 7.8 0.0 0.00 0.00 0.19 100 971.3
20260506173022 60 239 8.7 0.0 0.00 0.00 0.19 100 971.3
20260506171516 59 186 6.1 0.0 0.00 0.00 0.19 100 971.3
20260506170014 59 226 7.0 0.0 0.00 0.00 0.19 100 971.4
20260506164514 59 218 10.4 0.0 0.00 0.00 0.19 100 971.5
20260506163011 59 180 8.7 0.0 0.00 0.00 0.19 100 971.4
20260506161611 59 176 7.8 0.0 0.00 0.00 0.18 100 971.4
20260506160014 59 188 6.1 0.0 0.00 0.00 0.17 100 971.6
20260506154506 59 206 5.2 0.0 0.00 0.00 0.15 100 972.4
20260506153004 59 210 4.3 0.0 0.00 0.00 0.13 100 972.6
20260506151504 59 221 6.1 0.0 0.00 0.00 0.10 100 972.8
20260506150002 59 205 6.1 0.0 0.00 0.00 0.08 100 972.5
20260506144559 60 196 6.1 0.0 0.00 0.00 0.06 100 972.3
20260506143057 60 182 5.2 0.0 0.00 0.00 0.05 99 972.6
20260506141610 60 211 6.1 0.0 0.00 0.00 0.04 98 972.5
20260506140053 61 175 5.2 0.0 0.00 0.00 0.02 95 972.4
20260506134550 62 180 4.3 0.0 0.00 0.00 0.00 94 972.4
20260506133048 62 230 4.3 0.0 0.00 0.00 0.00 94 972.2
20260506131547 62 202 3.5 0.0 0.00 0.00 0.00 94 972.5
20260506130045 62 196 5.2 0.0 0.00 0.00 0.00 92 972.5
20260506124543 63 244 5.2 0.0 0.00 0.00 0.00 90 972.6
20260506123045 63 227 4.3 0.0 0.00 0.00 0.00 90 972.7
20260506121551 63 214 4.3 0.0 0.00 0.00 0.00 90 972.6
20260506120107 63 227 5.2 0.0 0.00 0.00 0.00 90 972.4
20260506114545 63 221 3.5 0.0 0.00 0.00 0.00 90 972.2
20260506113040 63 156 7.8 0.0 0.00 0.00 0.00 90 972.0
20260506111540 63 176 7.0 0.0 0.00 0.00 0.00 90 972.1
20260506110036 62 185 7.8 0.0 0.00 0.00 0.00 90 972.0
20260506104534 62 179 7.8 0.0 0.00 0.00 0.00 90 971.9
20260506103035 63 205 7.8 0.0 0.00 0.00 0.00 89 971.8
20260506101532 63 227 7.0 0.0 0.00 0.00 0.00 89 971.9
20260506100032 63 215 7.0 0.0 0.00 0.00 0.00 88 971.8
20260506094533 63 214 7.8 0.0 0.00 0.00 0.00 88 971.6
20260506093040 64 220 7.0 0.0 0.00 0.00 0.00 87 971.7
20260506091523 64 229 7.0 0.0 0.00 0.00 0.00 87 971.7
20260506090019 64 155 8.7 0.0 0.00 0.00 0.00 87 971.7
20260506084517 64 192 8.7 0.0 0.00 0.00 0.00 86 971.8
20260506083015 65 198 7.8 0.0 0.00 0.00 0.00 85 971.7
20260506081513 65 223 7.0 0.0 0.00 0.00 0.00 85 971.8
20260506073006 65 192 7.8 0.0 0.00 0.00 0.00 82 972.0
20260506071507 65 200 7.0 0.0 0.00 0.00 0.00 82 972.1
20260506070118 65 170 6.1 0.0 0.00 0.00 0.00 81 972.2
20260506061553 66 192 5.2 0.0 0.00 0.00 0.00 78 972.7
20260506044552 67 229 6.1 0.0 0.00 0.00 0.00 73 973.0
20260506043040 67 197 7.0 0.0 0.00 0.00 0.00 73 973.0
20260506041548 67 201 7.0 0.0 0.00 0.00 0.00 73 973.0
20260506040041 67 196 7.8 0.0 0.00 0.00 0.00 72 972.9
20260506034536 67 225 6.1 0.0 0.00 0.00 0.00 72 972.9
20260506033034 67 167 6.1 0.0 0.00 0.00 0.00 72 972.9
20260506031546 67 163 5.2 0.0 0.00 0.00 0.00 72 972.9
20260506030038 67 189 5.2 0.0 0.00 0.00 0.00 71 972.9
20260506024536 67 175 3.5 0.0 0.00 0.00 0.00 71 972.9
20260506023036 67 215 3.5 0.0 0.00 0.00 0.00 70 973.0
20260506021533 68 196 3.5 0.0 0.00 0.00 0.00 69 973.0
20260506020032 68 190 2.6 0.0 0.00 0.00 0.00 68 972.9
20260506014532 69 182 3.5 0.0 0.00 0.00 0.00 67 972.8
20260506013031 69 211 4.3 0.0 0.00 0.00 0.00 66 972.8
20260506011531 70 194 3.5 0.0 0.00 0.00 0.00 66 972.6
20260506010033 70 202 1.7 0.0 0.00 0.00 0.00 64 972.4
20260506004548 71 184 0.9 0.0 0.00 0.00 0.00 62 972.4
20260506003030 72 195 2.6 0.0 0.00 0.00 0.00 60 972.3
20260506001529 73 221 4.3 0.0 0.00 0.00 0.00 59 972.1
20260506000028 73 206 5.2 0.0 0.00 0.00 0.00 59 972.0
20260505234601 74 215 5.2 0.0 0.00 0.00 0.00 58 972.0
20260505233028 74 186 6.1 0.0 0.00 0.00 0.00 57 971.7
20260505231529 75 205 7.8 0.0 0.00 0.00 0.00 57 971.9
20260505230027 75 194 7.8 0.0 0.00 0.00 0.00 56 971.8
20260505224530 76 203 8.7 0.0 0.00 0.00 0.00 55 971.8
20260505223025 76 198 10.4 0.0 0.00 0.00 0.00 55 971.7